Home   Weather   Glendale   Past weeks

Flag for USA Past Weather in Glendale, Arizona, USA — Yesterday and Last 2 Weeks

Now
97 °F

Sunny.


Feels Like: 96 °F
Forecast: 83 / 101 °F
Wind: 7 mph from West

Location: Phoenix-Deer Valley Municipal Airport

Current Time: Jul 25, 2017 at 8:01:12 pm

Latest Report: Jul 25, 2017 at 6:53 pm


Visibility: 10 mi

Pressure: 29.81 "Hg

Humidity: 27%

Dew Point: 58 °F

Location of GlendaleLocation

Past Weather in Glendale — Graph

°F

Glendale Temperature Yesterday

Maximum temperature yesterday: 88 °F (at 5:53 pm)
Minimum temperature yesterday: 77 °F (at 7:53 am)
Average temperature yesterday: 83 °F

High & Low Weather Summary for the Past Weeks

 TemperatureHumidityPressure
High108 °F (Jul 13, 4:53 pm)91% (Jul 16, 10:53 pm)29.97 "Hg (Jul 16, 10:53 pm)
Low74 °F (Jul 16, 10:53 pm)16% (Jul 13, 4:53 pm)29.64 "Hg (Jul 10, 5:53 pm)
Average90 °F46%29.81 "Hg
* Reported Jul 10 5:53 pm — Jul 25 5:53 pm, Glendale. Weather by CustomWeather, © 2017

Note: Actual official high and low records may vary slightly from our data, if they occured in-between our weather recording intervals... More about our weather records

Advertising

Glendale Weather History for the Previous 24 Hours

Scroll right to see more
 ConditionsComfort  
Time TempWeatherWind HumidityBarometerVisibility
5:53 pm
Tue, Jul 25
98 °FSunny.13 mph25%29.81 "Hg10 mi
4:53 pm99 °FSunny.14 mph24%29.82 "Hg10 mi
3:53 pm99 °FScattered clouds.13 mph27%29.83 "Hg10 mi
2:53 pm97 °FScattered clouds.13 mph32%29.84 "Hg10 mi
1:53 pm96 °FSunny.6 mph36%29.85 "Hg10 mi
12:53 pm93 °FScattered clouds.No wind42%29.87 "Hg10 mi
11:53 am93 °FSunny.3 mph46%29.89 "Hg10 mi
10:53 am91 °FPartly sunny.9 mph49%29.90 "Hg10 mi
9:53 am88 °FBroken clouds.6 mph54%29.90 "Hg10 mi
8:53 am89 °FMostly cloudy.6 mph53%29.89 "Hg10 mi
7:53 am86 °FOvercast.5 mph63%29.88 "Hg10 mi
6:53 am83 °FOvercast.3 mph72%29.87 "Hg10 mi
5:53 am81 °FOvercast.3 mph79%29.86 "Hg10 mi
4:53 am82 °FOvercast.3 mph74%29.85 "Hg10 mi
3:53 am81 °FPassing clouds.5 mph79%29.85 "Hg10 mi
2:53 am82 °FOvercast.5 mph77%29.84 "Hg10 mi
1:53 am83 °FPassing clouds.3 mph72%29.84 "Hg10 mi
12:53 am83 °FClear.No wind74%29.85 "Hg10 mi
11:53 pm
Mon, Jul 24
83 °FPassing clouds.No wind72%29.85 "Hg10 mi
10:53 pm84 °FClear.5 mph67%29.84 "Hg10 mi
9:53 pm84 °FClear.6 mph67%29.83 "Hg10 mi
8:53 pm85 °FClear.6 mph65%29.81 "Hg10 mi
Weather by CustomWeather, © 2017

See weather overviewHow to use our weather pages